Regional Weather Roundup
Issued by NWS

Home | Current Version | Previous Version | Graphics & Text | Print | Product List | Glossary Off
Versions: 1 2 3 4 5 6 7 8 9 10 11 12 13 14 15 16 17 18 19 20 21 22 23 24 25 26 27 28 29 30 31 32 33 34 35 36 37 38 39 40 41 42 43 44 45 46 47 48 49 50

000
ASUS43 KDMX 021107
RWRIA

WEATHER ROUNDUP FOR IOWA
NATIONAL WEATHER SERVICE DES MOINES IA
600 AM CDT THU JUL 02 2015

NOTE: "FAIR" INDICATES FEW OR NO CLOUDS BELOW 12,000 FEET WITH NO
SIGNIFICANT WEATHER AND/OR OBSTRUCTIONS TO VISIBILITY.

* - THESE STATIONS ARE NOT NWS STATIONS...THUS NOT UNDER NWS
QUALITY CONTROL.  THEY ALSO DO NOT REPORT WEATHER SUCH
AS PRECIPITATION OR FOG.

IAZ001>003-012>014-020>022-031>034-043>046-021200-
   NORTHWEST IOWA

CITY           SKY/WX    TMP DP  RH WIND       PRES   REMARKS
CARROLL *      CLEAR     54  54 100 N5        29.98S
CHEROKEE *     CLOUDY    55  55 100 CALM      29.99F
DENISON *      CLEAR     55  55 100 NE5       29.97R
LE MARS *        N/A     57  55  94 NE5       29.99F
ORANGE CITY *  CLEAR     55  52  88 E5        29.99F
SHELDON *      PTCLDY    54  54 100 E3        29.99F
SIOUX CITY     CLOUDY    60  54  80 E7        29.97S
SPENCER        CLOUDY    55  51  86 E5        30.01S
STORM LAKE *   CLEAR     55  52  88 E8        30.00F
$$

IAZ055>058-069>071-079>083-090>094-021200-
   SOUTHWEST IOWA

CITY           SKY/WX    TMP DP  RH WIND       PRES   REMARKS
ATLANTIC *     CLEAR     59  57  94 CALM      29.97R
AUDUBON *      CLEAR     55  54  94 CALM      29.99R
CLARINDA *     CLOUDY    64  63  94 VRB5      29.95S
COUNCIL BLFS * CLOUDY    61  59  94 NE6       29.96R
CRESTON *      MOCLDY    61  59  94 NE12      29.95R
HARLAN  *      CLEAR     59  59 100 N7        30.00R
LAMONI         PTCLDY    63  60  90 NE7       29.93S
RED OAK *      CLOUDY    63  61  94 NE8       29.94S
SHENANDOAH *     N/A     64  61  88 NE6       29.94R
$$

IAZ047>049-059>061-072>074-084-021200-
   CENTRAL IOWA

CITY           SKY/WX    TMP DP  RH WIND       PRES   REMARKS
AMES           CLEAR     54  52  93 NE5       29.98F
ANKENY *       CLEAR     55  54  94 N5        29.97F
CHARITON *     MOCLDY    59  57  94 NE6       29.95S
DES MOINES     MOCLDY    60  53  77 NE10      29.96S
GRINNELL*      CLEAR     55  54  94 NE8       29.98F
KNOXVILLE *    PTCLDY    59  54  82 E6        29.95S
MARSHALLTOWN   PTCLDY    55  52  89 NE6       29.99R
PELLA *        CLEAR     57  57 100 CALM      29.98S
PERRY *          N/A     55  54  94 NE3       29.98S
$$

IAZ004>006-015-016-023>025-035-036-021200-
   NORTH CENTRAL IOWA

CITY           SKY/WX    TMP DP  RH WIND       PRES   REMARKS
ALGONA *       CLEAR     52  50  93 NE5       30.02S
CLARION *      CLEAR     52  50  93 E8        30.01S
ESTHERVILLE    CLOUDY    52  50  93 E6        30.02S
FORT DODGE *   MOCLDY    54  48  82 NE6       30.01S
MASON CITY     CLEAR     46  46 100 N5        30.05R
FOREST CITY *  CLEAR     46  46 100 CALM      30.04R FOG
IOWA FALLS *     N/A     52  52 100 NE3       30.03R
$$

IAZ007>011-017>019-026>030-037>042-050>054-066-021200-
   NORTHEAST IOWA

CITY           SKY/WX    TMP DP  RH WIND       PRES   REMARKS
CEDAR RAPIDS   CLEAR     55  53  93 E5        29.98R
CHARLES CITY * CLEAR     50  50 100 NE8       30.04R
CLINTON *      CLEAR     52  46  82 N6        30.02R
DECORAH *        N/A    N/A N/A N/A MISG        N/A
DUBUQUE        FOG       52  51  97 NE5       30.01R VSB<1/4
MONTICELLO *   CLEAR     52  52 100 NE3       30.00S
OELWEIN *      CLEAR     50  50 100 NE6       30.03R
WATERLOO       CLEAR     51  49  92 E3        30.00S
$$

IAZ064-065-067-068-078-021200-
   EAST CENTRAL IOWA

CITY           SKY/WX    TMP DP  RH WIND       PRES   REMARKS
DAVENPORT      CLEAR     54  50  86 NE8       29.99R
IOWA CITY      PTCLDY    57  53  86 NE3       29.99R
MT. PLEASANT * CLEAR     59  55  88 NE7       29.96R
MUSCATINE *    CLEAR     57  54  88 NE5       29.98R
QUAD CITIES    CLEAR     57  52  83 NE7       29.98R
$$

IAZ062-063-075>077-085>089-095>099-021200-
   SOUTHEAST IOWA

CITY           SKY/WX    TMP DP  RH WIND       PRES   REMARKS
BURLINGTON     CLEAR     59  55  87 NE8       29.95R
FAIRFIELD *    CLEAR     59  57  94 NE9       29.96S FOG
FORT MADISON * CLEAR     57  55  94 NE6       29.96R
KEOKUK *       CLOUDY    61  57  88 NE7       29.93R
OSKALOOSA *    CLOUDY    57  55  94 E5        29.97R
CENTERVILLE *  CLEAR     59  57  94 NE9       29.94F
OTTUMWA        CLEAR     58  56  93 NE9       29.95R
WASHINGTON *   PTCLDY    57  55  94 E8G14     29.98S
$$

ABBREVIATIONS USED IN REMARKS
   TC - TEMPERATURES IN CELSIUS
  WCI - WIND CHILL INDEX
   HX - HEAT INDEX
  VSB - VISIBILITY
$$



USA.gov is the U.S. government's official web portal to all federal, state and local government web resources and services.